San Nicolas Island, CA

7:53 PM PDT on August 22, 2017 (GMT -0700)
San Nicolas Island Naval Outlying Field

Weather History for KNSI - November, 2013

Change the Weather History Date:

Tuesday, November 5, 2013

  Actual Average Record
Temperature  
Mean Temperature 66 °F -  
Max Temperature 71 °F 62 °F 93 °F (2012)
Min Temperature 61 °F 53 °F 48 °F (2003)
Cooling Degree Days 1    
Growing Degree Days 16 (Base 50)    
Moisture  
Dew Point 44 °F    
Average Humidity 45    
Maximum Humidity 64    
Minimum Humidity 27    
Precipitation  
Precipitation 0.00 in - - ()
Sea Level Pressure  
Sea Level Pressure 30.07 in    
Wind  
Wind Speed 8 mph (NW)    
Max Wind Speed 16 mph    
Max Gust Speed -    
Visibility 9 miles    
Events      
Averages and records for this station are not official NWS values.
T = Trace of Precipitation, MM = Missing Value Source: NWS Daily Summary

Daily Weather History Graph

Daily Weather History Graph

Search for Another Location

Airport or City:

Trip Planner

Search our weather history database for the weather conditions in past years. The results will help you decide how hot, cold, wet, or windy it might be!

Date:

Astronomy

Nov. 05, 2013 Rise Set
Actual Time 6:20 AM PST 5:02 PM PST
Civil Twilight 5:54 AM PST 5:28 PM PST
Nautical Twilight 5:24 AM PST 5:57 PM PST
Astronomical Twilight 4:55 AM PST 6:26 PM PST
Moon 8:35 AM PST (11/5) 7:13 PM PST (11/5)
Length of Visible Light 11h 33m
Length of Day
10h 42m
Waxing Crescent, 7% of the Moon is Illuminated
Nov 5
Waxing Crescent
Nov 9
First Quarter
Nov 17
Full
Nov 25
Last Quarter
Dec 2
New

Hourly Weather History & Observations

Time (PST) Temp. Dew Point Humidity Pressure Visibility Wind Dir Wind Speed Gust Speed Precip Events Conditions
12:53 AM - - N/A% 29.96 in 10.0 mi West 8.1 mph - N/A   Clear
1:53 AM - - N/A% 29.95 in 10.0 mi West 5.8 mph - N/A   Clear
2:53 AM - - N/A% 29.96 in 10.0 mi West 5.8 mph - N/A   Clear
3:53 AM - - N/A% 29.99 in 10.0 mi NW 9.2 mph - N/A   Clear
4:53 AM - - N/A% 30.00 in 10.0 mi NNW 9.2 mph - N/A   Clear
5:53 AM 61.0 °F 48.9 °F 64% 30.01 in 7.0 mi NW 8.1 mph - N/A   Clear
6:53 AM 61.5 °F 48.9 °F 63% 30.03 in 7.0 mi WNW 9.2 mph - N/A   Clear
7:53 AM 64.2 °F 51.1 °F 62% 30.05 in 7.0 mi NW 5.8 mph - N/A   Clear
8:53 AM 66.6 °F 45.0 °F 46% 30.08 in 7.0 mi NNE 5.8 mph - N/A   Clear
9:53 AM 66.2 °F 46.4 °F 49% 30.10 in 7.0 mi NNE 6.9 mph - N/A   Clear
10:53 AM 67.6 °F 44.1 °F 43% 30.10 in 7.0 mi NNE 6.9 mph - N/A   Clear
11:53 AM 67.5 °F 42.1 °F 40% 30.09 in 7.0 mi NNE 8.1 mph - N/A   Clear
12:53 PM 69.8 °F 39.9 °F 34% 30.09 in 7.0 mi NE 4.6 mph - N/A   Clear
1:53 PM 71.2 °F 44.1 °F 38% 30.07 in 7.0 mi Calm Calm - N/A   Clear
2:53 PM 71.4 °F 36.0 °F 27% 30.08 in 7.0 mi SSW 3.5 mph - N/A   Clear
3:53 PM 71.6 °F 35.6 °F 27% 30.08 in 7.0 mi WSW 3.5 mph - N/A   Clear
4:53 PM - - N/A% 30.10 in 10.0 mi WSW 4.6 mph - N/A   Clear
5:53 PM - - N/A% 30.11 in 10.0 mi West 6.9 mph - N/A   Clear
6:53 PM - - N/A% 30.12 in 10.0 mi WNW 12.7 mph - N/A   Clear
7:53 PM - - N/A% 30.13 in 10.0 mi WNW 13.8 mph - N/A   Clear
8:53 PM - - N/A% 30.14 in 10.0 mi NW 16.1 mph - N/A   Clear
9:53 PM - - N/A% 30.15 in 10.0 mi WNW 12.7 mph - N/A   Clear
10:53 PM - - N/A% 30.14 in 10.0 mi WNW 12.7 mph - N/A   Clear
11:53 PM - - N/A% 30.15 in 10.0 mi NNW 13.8 mph - N/A   Clear